This demonstration page uses our WeatherBlox Daily Observations layout. Learn more.

Left ArrowRight Arrow

34.02893, -84.19858

Hourly Observations for April 21, 2019

Temp ( °F °C ) Dew Point ( °F °C ) Humidity (%) Winds ( mph kmh ) Pressure ( in mb ) Visibility ( mi km ) Precip ( " mm )
12:53 am 00:53 Partly Cloudy 45 7.2 43 6.1 93 93 SW 5 7 29.98 1015 10 16 0.00 0.00
1:53 am 01:53 Clear 42 5.6 41 5 96 96 WSW 3 6 29.98 1015 10 16 0.00 0.00
2:53 am 02:53 Clear 43 6.1 42 5.6 97 97 WSW 3 6 29.98 1015 10 16 0.00 0.00
3:53 am 03:53 Clear 44 6.7 43 6.1 96 96 W 6 9 29.98 1015 10 16 0.00 0.00
4:53 am 04:53 Clear 43 6.1 41 5 93 93 WNW 6 9 30.01 1016 10 16 0.00 0.00
5:53 am 05:53 Clear 43 6.1 41 5 93 93 WNW 7 11 30.03 1017 10 16 0.00 0.00
6:53 am 06:53 Mostly Cloudy 42 5.6 41 5 96 96 NW 3 6 30.06 1018 10 16 0.00 0.00
7:53 am 07:53 Sunny 44 6.7 42 5.6 93 93 WNW 3 6 30.08 1019 10 16 0.00 0.00
8:53 am 08:53 Sunny 50 10 43 6.1 77 77 WNW 6 9 30.09 1019 10 16 0.00 0.00
9:53 am 09:53 Sunny 53 11.7 42 5.6 66 66 NW 10 17 30.11 1020 10 16 0.00 0.00
10:53 am 10:53 Sunny 57 13.9 40 4.4 53 53 WNW 10 17 30.12 1020 10 16 0.00 0.00
11:53 am 11:53 Sunny 61 16.1 36 2.2 39 39 NW 10 17 30.11 1020 10 16 0.00 0.00
12:53 pm 12:53 Sunny 63 17.2 33 0.6 33 33 WNW 15 24 30.11 1020 10 16 0.00 0.00
1:53 pm 13:53 Sunny 65 18.3 34 1.1 32 32 WNW 16 26 30.11 1020 10 16 0.00 0.00
2:30 pm 14:30 Mostly Sunny 67 19.4 33 0.6 28 28 NW 17 28 30.09 1019 10 16 0.00 0.00
2:53 pm 14:53 Sunny 67 19.4 33 0.6 28 28 NW 17 28 30.10 1019 10 16 0.00 0.00
3:53 pm 15:53 Sunny 68 20 33 0.6 27 27 WNW 13 20 30.08 1019 10 16 0.00 0.00
4:00 pm 16:00 Mostly Sunny 68 20 32 0 26 26 NNW 16 26 30.06 1018 10 16 0.00 0.00
4:53 pm 16:53 Sunny 69 20.6 34 1.1 27 27 NW 13 20 30.08 1019 10 16 0.00 0.00
5:53 pm 17:53 Sunny 69 20.6 35 1.7 29 29 NW 15 24 30.08 1019 10 16 0.00 0.00
6:53 pm 18:53 Sunny 69 20.6 33 0.6 26 26 NNW 13 20 30.09 1019 10 16 0.00 0.00
7:53 pm 19:53 Sunny 66 18.9 35 1.7 32 32 NW 7 11 30.11 1020 10 16 0.00 0.00
8:53 pm 20:53 Clear 57 13.9 40 4.4 53 53 NW 3 6 30.13 1020 10 16 0.00 0.00
9:53 pm 21:53 Clear 54 12.2 42 5.6 64 64 Calm 30.15 1021 10 16 0.00 0.00
10:53 pm 22:53 Clear 51 10.6 43 6.1 74 74 W 5 7 30.16 1021 10 16 0.00 0.00
11:53 pm 23:53 Clear 48 8.9 42 5.6 80 80 Calm 30.16 1021 10 16 0.00 0.00

Powered by AerisWeather